FDX435 KOAK-KMEM

Flight info

Callsign FDX435
Flight time N/A
Altitude 33000
Route HUSSH2 SYRAH Q128 JSICA MLF/N0481F350 KD42S CIM IRW LITTR HOBRK4
Aircraft MD11/H-SDE1E2E3FGHIJ2J3J4J5M1RWXY/LB1D1

Departure

Time 2026-05-04 02:03
Airport San Francisco Bay Oakland International Airport (KOAK)

Arrival

Time N/A
Airport Memphis International Airport (KMEM)
Time Latitude Longitude Altitude Speed Heading
2026-05-04 01:09 37.71745 -122.21986 16 ft 0 kts 319°
2026-05-04 01:48 37.71745 -122.21985 16 ft 1 kts 319°
2026-05-04 01:49 37.71734 -122.21973 17 ft 3 kts 308°
2026-05-04 01:49 37.71724 -122.21954 16 ft 3 kts 287°
2026-05-04 01:49 37.71720 -122.21933 16 ft 3 kts 262°
2026-05-04 01:49 37.71725 -122.21910 18 ft 3 kts 242°
2026-05-04 01:50 37.71735 -122.21889 17 ft 3 kts 230°
2026-05-04 01:50 37.71748 -122.21870 19 ft 3 kts 225°
2026-05-04 01:50 37.71757 -122.21859 20 ft 0 kts 225°
2026-05-04 01:55 37.71756 -122.21860 16 ft 1 kts 225°
2026-05-04 01:55 37.71743 -122.21876 18 ft 3 kts 225°
2026-05-04 01:56 37.71727 -122.21896 19 ft 4 kts 225°
2026-05-04 01:56 37.71703 -122.21929 16 ft 7 kts 228°
2026-05-04 01:56 37.71660 -122.21991 16 ft 12 kts 229°
2026-05-04 01:56 37.71605 -122.22048 16 ft 9 kts 199°
2026-05-04 01:57 37.71576 -122.22042 16 ft 4 kts 158°
2026-05-04 01:57 37.71545 -122.22010 16 ft 8 kts 134°
2026-05-04 01:57 37.71491 -122.21979 16 ft 9 kts 184°
2026-05-04 01:57 37.71441 -122.22030 16 ft 10 kts 228°
2026-05-04 01:58 37.71388 -122.22108 16 ft 13 kts 229°
2026-05-04 01:58 37.71321 -122.22202 16 ft 15 kts 228°
2026-05-04 01:58 37.71236 -122.22295 18 ft 17 kts 219°
2026-05-04 01:58 37.71139 -122.22396 16 ft 19 kts 220°
2026-05-04 01:59 37.71054 -122.22410 16 ft 9 kts 143°
2026-05-04 01:59 37.71012 -122.22346 16 ft 10 kts 128°
2026-05-04 01:59 37.70967 -122.22277 17 ft 11 kts 130°
2026-05-04 01:59 37.70915 -122.22201 16 ft 13 kts 130°
2026-05-04 02:00 37.70850 -122.22103 17 ft 16 kts 130°
2026-05-04 02:00 37.70770 -122.21983 17 ft 19 kts 130°
2026-05-04 02:00 37.70676 -122.21843 17 ft 22 kts 130°
2026-05-04 02:00 37.70573 -122.21691 17 ft 23 kts 130°
2026-05-04 02:01 37.70475 -122.21547 16 ft 20 kts 129°
2026-05-04 02:01 37.70390 -122.21425 16 ft 17 kts 141°
2026-05-04 02:01 37.70297 -122.21369 18 ft 13 kts 160°
2026-05-04 02:01 37.70229 -122.21366 17 ft 8 kts 200°
2026-05-04 02:02 37.70184 -122.21412 18 ft 9 kts 230°
2026-05-04 02:02 37.70185 -122.21480 16 ft 8 kts 304°
2026-05-04 02:02 37.70237 -122.21557 16 ft 18 kts 310°
2026-05-04 02:02 37.70471 -122.21911 17 ft 90 kts 310°
2026-05-04 02:03 37.71002 -122.22707 15 ft 143 kts 310°
2026-05-04 02:03 37.71704 -122.23780 107 ft 166 kts 310°
2026-05-04 02:03 37.72482 -122.24869 518 ft 169 kts 308°
2026-05-04 02:03 37.73155 -122.26087 1033 ft 169 kts 290°
2026-05-04 02:04 37.73548 -122.27509 1527 ft 173 kts 284°
2026-05-04 02:04 37.73882 -122.28973 2352 ft 172 kts 283°
2026-05-04 02:04 37.74217 -122.30457 3099 ft 178 kts 283°
2026-05-04 02:04 37.74628 -122.32033 3483 ft 205 kts 291°
2026-05-04 02:05 37.75489 -122.33624 3655 ft 237 kts 314°
2026-05-04 02:05 37.76948 -122.34836 3832 ft 266 kts 332°
2026-05-04 02:05 37.78703 -122.35805 4394 ft 280 kts 337°
2026-05-04 02:05 37.80541 -122.36733 5192 ft 289 kts 338°
2026-05-04 02:06 37.82432 -122.37682 6059 ft 295 kts 338°
2026-05-04 02:06 37.84397 -122.38501 6824 ft 299 kts 352°
2026-05-04 02:06 37.86450 -122.38696 7614 ft 302 kts
2026-05-04 02:06 37.88558 -122.38633 8442 ft 304 kts
2026-05-04 02:07 37.90633 -122.38174 9285 ft 303 kts 19°
2026-05-04 02:07 37.92537 -122.37079 10114 ft 301 kts 36°
2026-05-04 02:07 37.94173 -122.35290 10303 ft 322 kts 53°
2026-05-04 02:07 37.95335 -122.32770 10444 ft 343 kts 70°
2026-05-04 02:08 37.96042 -122.29848 10984 ft 350 kts 77°
2026-05-04 02:08 37.96606 -122.26816 11728 ft 354 kts 79°
2026-05-04 02:08 37.97151 -122.23752 12484 ft 358 kts 78°
2026-05-04 02:08 37.97714 -122.20668 13234 ft 361 kts 78°
2026-05-04 02:09 37.98299 -122.17556 13929 ft 365 kts 78°
2026-05-04 02:09 37.98766 -122.14384 14518 ft 367 kts 85°
2026-05-04 02:09 37.98931 -122.11139 15107 ft 370 kts 89°
2026-05-04 02:09 37.98967 -122.07862 15717 ft 373 kts 91°
2026-05-04 02:10 37.98965 -122.04548 16299 ft 377 kts 91°
2026-05-04 02:10 37.98961 -122.02347 16679 ft 379 kts 91°
2026-05-04 02:10 37.98960 -121.98996 17279 ft 382 kts 91°
2026-05-04 02:10 37.98957 -121.94442 17846 ft 391 kts 92°
2026-05-04 02:11 37.98931 -121.90941 18060 ft 403 kts 92°
2026-05-04 02:11 37.98901 -121.88570 18215 ft 409 kts 92°
2026-05-04 02:11 37.98871 -121.84892 18396 ft 419 kts 91°
2026-05-04 02:11 37.98918 -121.81416 20111 ft 385 kts 90°
2026-05-04 02:12 37.98989 -121.76843 20549 ft 395 kts 90°
2026-05-04 02:12 37.99020 -121.74494 20867 ft 396 kts 90°
2026-05-04 02:12 37.99055 -121.70992 21381 ft 397 kts 90°
2026-05-04 02:12 37.99080 -121.67530 21896 ft 398 kts 90°
2026-05-04 02:13 37.99103 -121.62843 22602 ft 400 kts 90°
2026-05-04 02:13 37.99112 -121.60457 22969 ft 401 kts 91°
2026-05-04 02:13 37.99123 -121.56920 23515 ft 402 kts 91°
2026-05-04 02:13 37.99133 -121.53369 23965 ft 404 kts 91°
2026-05-04 02:14 37.99141 -121.49801 24408 ft 406 kts 90°
2026-05-04 02:14 37.99148 -121.46216 24861 ft 408 kts 90°
2026-05-04 02:14 37.99154 -121.42622 25308 ft 410 kts 90°
2026-05-04 02:14 37.99155 -121.41805 25414 ft 410 kts 90°
2026-05-04 02:15 37.99160 -121.38223 25856 ft 412 kts 90°
2026-05-04 02:15 37.99164 -121.34574 26309 ft 414 kts 90°
2026-05-04 02:15 37.99166 -121.30919 26745 ft 416 kts 90°
2026-05-04 02:15 37.99168 -121.27235 27187 ft 418 kts 90°
2026-05-04 02:16 37.99168 -121.23545 27597 ft 420 kts 90°
2026-05-04 02:16 37.99167 -121.19830 28018 ft 423 kts 90°
2026-05-04 02:16 37.99165 -121.16095 28426 ft 425 kts 90°
2026-05-04 02:16 37.99208 -121.12332 28803 ft 427 kts 86°
2026-05-04 02:17 37.99538 -121.08579 29211 ft 430 kts 82°
2026-05-04 02:17 38.00056 -121.04834 29586 ft 433 kts 80°
2026-05-04 02:17 38.00652 -121.01085 29966 ft 435 kts 79°
2026-05-04 02:17 38.01268 -120.97330 30295 ft 436 kts 79°
2026-05-04 02:18 38.01883 -120.93540 30543 ft 439 kts 80°
2026-05-04 02:18 38.02489 -120.89726 30789 ft 443 kts 80°
2026-05-04 02:18 38.03090 -120.85881 31036 ft 446 kts 80°
2026-05-04 02:18 38.03687 -120.82013 31266 ft 449 kts 80°
2026-05-04 02:19 38.04284 -120.78111 31495 ft 452 kts 80°
2026-05-04 02:19 38.04882 -120.74182 31734 ft 455 kts 81°
2026-05-04 02:19 38.05483 -120.70220 31958 ft 458 kts 81°
2026-05-04 02:19 38.06085 -120.66251 32192 ft 460 kts 81°
2026-05-04 02:20 38.06691 -120.62241 32413 ft 463 kts 81°
2026-05-04 02:20 38.07290 -120.58272 32635 ft 465 kts 81°
2026-05-04 02:20 38.07898 -120.54230 32871 ft 467 kts 81°
2026-05-04 02:20 38.08510 -120.50153 32928 ft 472 kts 81°
2026-05-04 02:21 38.09738 -120.41942 32946 ft 474 kts 81°
2026-05-04 02:21 38.10965 -120.33702 32944 ft 474 kts 81°
2026-05-04 02:22 38.12186 -120.25462 32939 ft 475 kts 81°
2026-05-04 02:22 38.13402 -120.17210 32932 ft 475 kts 81°
2026-05-04 02:23 38.14611 -120.08952 32931 ft 476 kts 81°
2026-05-04 02:23 38.15790 -120.00658 32947 ft 477 kts 81°
2026-05-04 02:24 38.16966 -119.92415 32951 ft 478 kts 81°
2026-05-04 02:24 38.18161 -119.84106 32946 ft 478 kts 81°
2026-05-04 02:25 38.19357 -119.75779 32946 ft 479 kts 81°
2026-05-04 02:25 38.20550 -119.67434 32944 ft 479 kts 81°
2026-05-04 02:26 38.21735 -119.59092 32942 ft 480 kts 82°
2026-05-04 02:26 38.22916 -119.50735 32935 ft 480 kts 82°
2026-05-04 02:27 38.24091 -119.42377 32919 ft 481 kts 82°
2026-05-04 02:27 38.25262 -119.33999 32913 ft 481 kts 82°
2026-05-04 02:28 38.26429 -119.25605 32899 ft 482 kts 82°
2026-05-04 02:28 38.27593 -119.17185 32890 ft 483 kts 82°
2026-05-04 02:29 38.28746 -119.08799 32875 ft 483 kts 82°
2026-05-04 02:29 38.29887 -119.00339 32876 ft 485 kts 82°
2026-05-04 02:30 38.31008 -118.91879 32887 ft 486 kts 82°
2026-05-04 02:30 38.32147 -118.83380 32898 ft 487 kts 82°
2026-05-04 02:31 38.33284 -118.74921 32915 ft 488 kts 82°
2026-05-04 02:31 38.34424 -118.66401 32933 ft 489 kts 82°
2026-05-04 02:32 38.35560 -118.57854 32935 ft 489 kts 82°
2026-05-04 02:32 38.36691 -118.49299 32916 ft 489 kts 82°
2026-05-04 02:33 38.37815 -118.40740 32891 ft 489 kts 82°
2026-05-04 02:33 38.38934 -118.32176 32866 ft 490 kts 82°
2026-05-04 02:34 38.40042 -118.23643 32821 ft 491 kts 82°
2026-05-04 02:34 38.41152 -118.15043 32811 ft 492 kts 82°
2026-05-04 02:35 38.42258 -118.06418 32810 ft 493 kts 82°
2026-05-04 02:35 38.43353 -117.97767 32797 ft 495 kts 83°
2026-05-04 02:36 38.44420 -117.89092 32796 ft 496 kts 83°
2026-05-04 02:36 38.45503 -117.80378 32780 ft 497 kts 83°
2026-05-04 02:37 38.46594 -117.71650 32780 ft 498 kts 83°
2026-05-04 02:37 38.47681 -117.62926 32784 ft 498 kts 83°
2026-05-04 02:38 38.48753 -117.54264 32801 ft 497 kts 83°
2026-05-04 02:38 38.49824 -117.45542 32806 ft 496 kts 83°
2026-05-04 02:39 38.50891 -117.36821 32878 ft 495 kts 83°
2026-05-04 02:39 38.51428 -117.32477 33212 ft 493 kts 83°
2026-05-04 02:39 38.51965 -117.28226 33725 ft 488 kts 82°
2026-05-04 02:40 38.52515 -117.23996 34358 ft 474 kts 83°
2026-05-04 02:40 38.52849 -117.19851 34557 ft 474 kts 93°
2026-05-04 02:40 38.52644 -117.15610 34234 ft 485 kts 99°
2026-05-04 02:40 38.52230 -117.11263 33885 ft 498 kts 99°
2026-05-04 02:41 38.51845 -117.06852 33477 ft 501 kts 98°
2026-05-04 02:41 38.51564 -117.02418 33052 ft 500 kts 96°
2026-05-04 02:41 38.51382 -116.97993 32881 ft 497 kts 95°
2026-05-04 02:41 38.51262 -116.93643 32853 ft 497 kts 94°
2026-05-04 02:42 38.51082 -116.84800 32853 ft 498 kts 94°
2026-05-04 02:42 38.50903 -116.75953 32853 ft 499 kts 94°
2026-05-04 02:43 38.50702 -116.67087 32855 ft 499 kts 94°
2026-05-04 02:43 38.50489 -116.58206 32854 ft 500 kts 94°
2026-05-04 02:44 38.50269 -116.49327 32849 ft 501 kts 94°
2026-05-04 02:44 38.50041 -116.40407 32842 ft 503 kts 94°
2026-05-04 02:45 38.49808 -116.31538 32839 ft 504 kts 94°
2026-05-04 02:45 38.49565 -116.22588 32831 ft 505 kts 95°
2026-05-04 02:46 38.49285 -116.13623 32825 ft 505 kts 95°
2026-05-04 02:46 38.49007 -116.04645 32812 ft 506 kts 95°
2026-05-04 02:47 38.48739 -115.95649 32808 ft 507 kts 95°
2026-05-04 02:47 38.48470 -115.86694 32803 ft 509 kts 95°
2026-05-04 02:48 38.48192 -115.77642 32802 ft 511 kts 95°
2026-05-04 02:48 38.47905 -115.68567 32799 ft 513 kts 95°
2026-05-04 02:49 38.47608 -115.59466 32686 ft 514 kts 95°
2026-05-04 02:49 38.47449 -115.54915 32448 ft 510 kts 95°
2026-05-04 02:49 38.47298 -115.50420 32732 ft 509 kts 95°
2026-05-04 02:50 38.46995 -115.41339 32796 ft 513 kts 95°
2026-05-04 02:50 38.46683 -115.32218 32788 ft 515 kts 95°
2026-05-04 02:51 38.46359 -115.23071 32794 ft 516 kts 95°
2026-05-04 02:51 38.46022 -115.13980 32788 ft 517 kts 96°
2026-05-04 02:52 38.45649 -115.04815 32791 ft 518 kts 96°
2026-05-04 02:52 38.45285 -114.95620 32793 ft 519 kts 96°
2026-05-04 02:53 38.44927 -114.86412 32802 ft 519 kts 96°
2026-05-04 02:53 38.44565 -114.77200 32799 ft 520 kts 96°
2026-05-04 02:54 38.44194 -114.67956 32806 ft 521 kts 96°
2026-05-04 02:54 38.43817 -114.58794 32813 ft 522 kts 96°
2026-05-04 02:55 38.43234 -114.44907 32813 ft 523 kts 96°
2026-05-04 02:56 38.42835 -114.35649 32812 ft 523 kts 96°
2026-05-04 02:56 38.42429 -114.26389 32816 ft 523 kts 96°
2026-05-04 02:57 38.42016 -114.17107 32814 ft 524 kts 96°
2026-05-04 02:57 38.41583 -114.07808 32866 ft 524 kts 97°
2026-05-04 02:57 38.41421 -114.04744 33023 ft 524 kts 97°
2026-05-04 02:58 38.41052 -113.98577 33651 ft 517 kts 98°
2026-05-04 02:58 38.40847 -113.95561 34017 ft 512 kts 99°
2026-05-04 02:58 38.40525 -113.91119 34876 ft 494 kts 98°
2026-05-04 02:59 38.40431 -113.89616 34939 ft 497 kts 98°
2026-05-04 03:00 38.40310 -113.87403 34938 ft 496 kts 97°
2026-05-04 03:00 38.40111 -113.82967 34687 ft 509 kts 96°
2026-05-04 03:00 38.39971 -113.78376 34327 ft 525 kts 95°
2026-05-04 03:00 38.39826 -113.73660 33976 ft 535 kts 95°
2026-05-04 03:01 38.39654 -113.68913 33593 ft 537 kts 96°
2026-05-04 03:01 38.39455 -113.64172 33184 ft 534 kts 96°
2026-05-04 03:01 38.39235 -113.59461 32890 ft 528 kts 97°
2026-05-04 03:02 38.38764 -113.50150 32818 ft 527 kts 97°
2026-05-04 03:02 38.38278 -113.40832 32832 ft 526 kts 97°
2026-05-04 03:03 38.37794 -113.31576 32857 ft 526 kts 97°
2026-05-04 03:03 38.37303 -113.22277 32893 ft 527 kts 97°
2026-05-04 03:04 38.36804 -113.12956 32926 ft 527 kts 97°
2026-05-04 03:04 38.36091 -113.03695 32931 ft 522 kts 105°
2026-05-04 03:05 38.34172 -112.94814 33224 ft 520 kts 113°
2026-05-04 03:05 38.33024 -112.90435 33400 ft 522 kts 114°
2026-05-04 03:05 38.31861 -112.86027 33577 ft 526 kts 113°
2026-05-04 03:05 38.30716 -112.81596 33754 ft 528 kts 112°
2026-05-04 03:06 38.29593 -112.77145 33938 ft 530 kts 112°
2026-05-04 03:06 38.28481 -112.72660 34127 ft 532 kts 112°
2026-05-04 03:06 38.27376 -112.68164 34329 ft 533 kts 112°
2026-05-04 03:06 38.26273 -112.63662 34546 ft 533 kts 112°
2026-05-04 03:07 38.25165 -112.59149 34776 ft 533 kts 112°
2026-05-04 03:07 38.22940 -112.50127 34886 ft 534 kts 112°
2026-05-04 03:08 38.20706 -112.41124 34900 ft 534 kts 113°
2026-05-04 03:08 38.18477 -112.32186 34914 ft 534 kts 113°
2026-05-04 03:09 38.16221 -112.23167 34941 ft 536 kts 113°
2026-05-04 03:09 38.13954 -112.14137 34947 ft 537 kts 113°
2026-05-04 03:10 38.11677 -112.05101 34943 ft 537 kts 113°
2026-05-04 03:10 38.09361 -111.96059 34947 ft 538 kts 113°
2026-05-04 03:11 38.07043 -111.87016 34952 ft 539 kts 113°
2026-05-04 03:11 38.04730 -111.77953 34956 ft 540 kts 113°
2026-05-04 03:12 38.02418 -111.68906 34955 ft 540 kts 113°
2026-05-04 03:12 38.00096 -111.59849 34960 ft 539 kts 113°
2026-05-04 03:13 37.97769 -111.50810 34946 ft 539 kts 113°
2026-05-04 03:13 37.95451 -111.41843 34936 ft 538 kts 114°
2026-05-04 03:14 37.93112 -111.32828 34927 ft 539 kts 114°
2026-05-04 03:14 37.90764 -111.23810 34905 ft 539 kts 114°
2026-05-04 03:15 37.88407 -111.14789 34894 ft 540 kts 114°
2026-05-04 03:15 37.86038 -111.05753 34878 ft 539 kts 114°
2026-05-04 03:16 37.83662 -110.96820 34863 ft 539 kts 114°
2026-05-04 03:16 37.81267 -110.87846 34849 ft 538 kts 114°
2026-05-04 03:17 37.78881 -110.78866 34838 ft 539 kts 114°
2026-05-04 03:17 37.76489 -110.69869 34827 ft 540 kts 114°
2026-05-04 03:18 37.74087 -110.60866 34812 ft 541 kts 114°
2026-05-04 03:18 37.71676 -110.51863 34815 ft 542 kts 114°
2026-05-04 03:19 37.69247 -110.42829 34828 ft 544 kts 114°
2026-05-04 03:19 37.66810 -110.33787 34835 ft 544 kts 114°
2026-05-04 03:20 37.64363 -110.24743 34842 ft 545 kts 114°
2026-05-04 03:20 37.61920 -110.15749 34872 ft 545 kts 114°
2026-05-04 03:21 37.59457 -110.06711 34880 ft 546 kts 114°
2026-05-04 03:21 37.56962 -109.97677 34877 ft 546 kts 114°
2026-05-04 03:22 37.54471 -109.88696 34906 ft 546 kts 114°
2026-05-04 03:22 37.51975 -109.79652 34942 ft 547 kts 114°
2026-05-04 03:23 37.49470 -109.70583 34976 ft 548 kts 114°
2026-05-04 03:23 37.46960 -109.61526 35008 ft 548 kts 114°
2026-05-04 03:24 37.44435 -109.52449 35015 ft 549 kts 114°
2026-05-04 03:24 37.41902 -109.43376 34998 ft 550 kts 114°
2026-05-04 03:25 37.39372 -109.34344 34962 ft 551 kts 114°
2026-05-04 03:25 37.36813 -109.25242 34919 ft 552 kts 114°
2026-05-04 03:26 37.34245 -109.16138 34865 ft 553 kts 114°
2026-05-04 03:26 37.31669 -109.07036 34873 ft 554 kts 114°
2026-05-04 03:27 37.29055 -108.97929 34926 ft 554 kts 114°
2026-05-04 03:27 37.26436 -108.88822 34978 ft 555 kts 114°
2026-05-04 03:28 37.23822 -108.79698 35011 ft 555 kts 114°
2026-05-04 03:28 37.21207 -108.70574 35042 ft 556 kts 114°
2026-05-04 03:29 37.18598 -108.61508 35049 ft 556 kts 114°
2026-05-04 03:29 37.15962 -108.52380 35020 ft 557 kts 114°
2026-05-04 03:30 37.13312 -108.43240 34989 ft 558 kts 114°
2026-05-04 03:30 37.10652 -108.34090 34957 ft 559 kts 114°
2026-05-04 03:31 37.07957 -108.24957 34940 ft 559 kts 114°
2026-05-04 03:31 37.05292 -108.15795 34892 ft 561 kts 114°
2026-05-04 03:32 37.02620 -108.06683 34966 ft 561 kts 114°
2026-05-04 03:32 36.99897 -107.97535 34992 ft 561 kts 114°
2026-05-04 03:33 36.97816 -107.88088 35017 ft 566 kts 103°
2026-05-04 03:33 36.96435 -107.78392 35018 ft 567 kts 101°
2026-05-04 03:34 36.95119 -107.68675 35012 ft 567 kts 102°
2026-05-04 03:34 36.93701 -107.58969 34985 ft 566 kts 102°
2026-05-04 03:35 36.92232 -107.49302 34954 ft 567 kts 102°
2026-05-04 03:35 36.90748 -107.39608 34918 ft 567 kts 102°
2026-05-04 03:36 36.89273 -107.29991 34926 ft 568 kts 102°
2026-05-04 03:36 36.87782 -107.20299 34926 ft 568 kts 102°
2026-05-04 03:37 36.86279 -107.10591 34927 ft 569 kts 102°
2026-05-04 03:37 36.84771 -107.00906 34927 ft 569 kts 102°
2026-05-04 03:38 36.83245 -106.91205 34932 ft 569 kts 103°
2026-05-04 03:38 36.81686 -106.81508 34934 ft 569 kts 102°
2026-05-04 03:39 36.80137 -106.71823 34944 ft 569 kts 102°
2026-05-04 03:39 36.78595 -106.62141 34952 ft 569 kts 102°
2026-05-04 03:40 36.77046 -106.52457 34954 ft 569 kts 102°
2026-05-04 03:40 36.75486 -106.42761 34964 ft 569 kts 102°
2026-05-04 03:41 36.73930 -106.33147 34955 ft 569 kts 102°
2026-05-04 03:41 36.72358 -106.23487 34953 ft 569 kts 102°
2026-05-04 03:42 36.70774 -106.13809 34947 ft 569 kts 102°
2026-05-04 03:42 36.69186 -106.04154 34936 ft 569 kts 102°
2026-05-04 03:43 36.67590 -105.94502 34930 ft 570 kts 102°
2026-05-04 03:43 36.65960 -105.84841 34924 ft 570 kts 102°
2026-05-04 03:44 36.64319 -105.75175 34929 ft 571 kts 102°
2026-05-04 03:44 36.62686 -105.65492 34932 ft 572 kts 102°
2026-05-04 03:45 36.61053 -105.55813 35007 ft 571 kts 102°
2026-05-04 03:45 36.59691 -105.47785 35047 ft 570 kts 102°
2026-05-04 03:46 36.58047 -105.38133 35097 ft 569 kts 102°
2026-05-04 03:46 36.56129 -105.26954 35130 ft 568 kts 102°
2026-05-04 03:47 36.54741 -105.18902 35117 ft 568 kts 102°
2026-05-04 03:47 36.53090 -105.09368 35080 ft 568 kts 102°
2026-05-04 03:48 36.51411 -104.99717 35017 ft 567 kts 102°
2026-05-04 03:48 36.49731 -104.90130 34931 ft 568 kts 102°
2026-05-04 03:49 36.48269 -104.80483 34879 ft 568 kts 98°
2026-05-04 03:49 36.47080 -104.70832 34887 ft 568 kts 97°
2026-05-04 03:50 36.45911 -104.61117 34893 ft 569 kts 98°
2026-05-04 03:50 36.44704 -104.51399 34883 ft 570 kts 98°
2026-05-04 03:51 36.43472 -104.41685 34867 ft 569 kts 98°
2026-05-04 03:51 36.42231 -104.31984 34841 ft 568 kts 98°
2026-05-04 03:52 36.40986 -104.22301 34831 ft 567 kts 98°
2026-05-04 03:52 36.39735 -104.12623 34836 ft 567 kts 98°
2026-05-04 03:53 36.38479 -104.02970 34833 ft 566 kts 98°
2026-05-04 03:53 36.37214 -103.93315 34831 ft 565 kts 98°
2026-05-04 03:54 36.35938 -103.83700 34829 ft 565 kts 98°
2026-05-04 03:54 36.34634 -103.74109 34825 ft 564 kts 98°
2026-05-04 03:55 36.33339 -103.64515 34829 ft 563 kts 98°
2026-05-04 03:55 36.32059 -103.54997 34836 ft 563 kts 98°
2026-05-04 03:56 36.30768 -103.45429 34867 ft 563 kts 98°
2026-05-04 03:56 36.29465 -103.35853 34897 ft 563 kts 98°
2026-05-04 03:57 36.28155 -103.26284 34913 ft 562 kts 98°
2026-05-04 03:57 36.26840 -103.16742 34919 ft 562 kts 98°
2026-05-04 03:58 36.24853 -103.02427 34901 ft 561 kts 98°
2026-05-04 03:58 36.23520 -102.92897 34874 ft 561 kts 98°
2026-05-04 03:59 36.22175 -102.83373 34854 ft 561 kts 99°
2026-05-04 03:59 36.20806 -102.73923 34884 ft 561 kts 99°
2026-05-04 04:00 36.19426 -102.64347 34908 ft 561 kts 99°
2026-05-04 04:00 36.18070 -102.54899 34920 ft 561 kts 98°
2026-05-04 04:01 36.16701 -102.45384 34919 ft 562 kts 99°
2026-05-04 04:01 36.15325 -102.35879 34901 ft 561 kts 99°
2026-05-04 04:02 36.13939 -102.26372 34871 ft 561 kts 99°
2026-05-04 04:02 36.12548 -102.16888 34852 ft 560 kts 99°
2026-05-04 04:03 36.11151 -102.07414 34869 ft 560 kts 99°
2026-05-04 04:03 36.09746 -101.97944 34878 ft 559 kts 99°
2026-05-04 04:04 36.08337 -101.88497 34873 ft 559 kts 99°
2026-05-04 04:04 36.06908 -101.79068 34857 ft 557 kts 99°
2026-05-04 04:05 36.05458 -101.69647 34834 ft 557 kts 99°
2026-05-04 04:05 36.04022 -101.60252 34814 ft 556 kts 99°
2026-05-04 04:06 36.02591 -101.50864 34826 ft 555 kts 99°
2026-05-04 04:06 36.01168 -101.41571 34842 ft 554 kts 99°
2026-05-04 04:07 35.99727 -101.32224 34852 ft 554 kts 99°
2026-05-04 04:07 35.98279 -101.22883 34846 ft 553 kts 99°
2026-05-04 04:08 35.96826 -101.13561 34845 ft 552 kts 99°
2026-05-04 04:08 35.95370 -101.04272 34845 ft 551 kts 99°
2026-05-04 04:09 35.93907 -100.94985 34853 ft 550 kts 99°
2026-05-04 04:09 35.92441 -100.85728 34847 ft 549 kts 100°
2026-05-04 04:10 35.90960 -100.76555 34850 ft 548 kts 100°
2026-05-04 04:10 35.89461 -100.67349 34864 ft 547 kts 100°
2026-05-04 04:11 35.87976 -100.58154 34887 ft 546 kts 100°
2026-05-04 04:11 35.86493 -100.48976 34899 ft 545 kts 100°
2026-05-04 04:12 35.85004 -100.39803 34900 ft 545 kts 100°
2026-05-04 04:12 35.83509 -100.30647 34895 ft 544 kts 100°
2026-05-04 04:13 35.82011 -100.21522 34884 ft 544 kts 100°
2026-05-04 04:13 35.80513 -100.12444 34866 ft 543 kts 100°
2026-05-04 04:14 35.79002 -100.03324 34859 ft 543 kts 100°
2026-05-04 04:14 35.77486 -99.94226 34849 ft 543 kts 100°
2026-05-04 04:15 35.75961 -99.85121 34858 ft 542 kts 101°
2026-05-04 04:15 35.74411 -99.76031 34856 ft 541 kts 101°
2026-05-04 04:16 35.72855 -99.66977 34863 ft 541 kts 101°
2026-05-04 04:16 35.71309 -99.57916 34876 ft 540 kts 101°
2026-05-04 04:17 35.69778 -99.48939 34893 ft 540 kts 101°
2026-05-04 04:17 35.68233 -99.39925 34901 ft 538 kts 101°
2026-05-04 04:18 35.66682 -99.30920 34906 ft 538 kts 101°
2026-05-04 04:18 35.65124 -99.21925 34890 ft 537 kts 101°
2026-05-04 04:19 35.63565 -99.12961 34894 ft 537 kts 101°
2026-05-04 04:19 35.61998 -99.04000 34896 ft 536 kts 101°
2026-05-04 04:20 35.60427 -98.95053 34921 ft 536 kts 101°
2026-05-04 04:20 35.58852 -98.86119 34946 ft 535 kts 101°
2026-05-04 04:21 35.57255 -98.77200 34969 ft 534 kts 102°
2026-05-04 04:21 35.55644 -98.68304 34962 ft 533 kts 102°
2026-05-04 04:22 35.54042 -98.59393 34966 ft 533 kts 102°
2026-05-04 04:22 35.52446 -98.50505 34952 ft 533 kts 102°
2026-05-04 04:23 35.50845 -98.41625 34945 ft 533 kts 102°
2026-05-04 04:23 35.49248 -98.32815 34924 ft 532 kts 102°
2026-05-04 04:24 35.47635 -98.23955 34954 ft 532 kts 102°
2026-05-04 04:24 35.46015 -98.15093 34967 ft 531 kts 102°
2026-05-04 04:25 35.44391 -98.06253 34973 ft 531 kts 102°
2026-05-04 04:25 35.42762 -97.97423 34972 ft 531 kts 102°
2026-05-04 04:26 35.41128 -97.88602 34969 ft 530 kts 102°
2026-05-04 04:26 35.39479 -97.79789 34961 ft 530 kts 102°
2026-05-04 04:27 35.37807 -97.71001 34985 ft 529 kts 102°
2026-05-04 04:27 35.36162 -97.62218 34982 ft 528 kts 101°
2026-05-04 04:28 35.35001 -97.53368 34985 ft 531 kts 96°
2026-05-04 04:28 35.34134 -97.44386 34982 ft 531 kts 95°
2026-05-04 04:29 35.33264 -97.35418 34985 ft 530 kts 95°
2026-05-04 04:29 35.32344 -97.26449 34974 ft 530 kts 96°
2026-05-04 04:30 35.31404 -97.17516 34978 ft 529 kts 96°
2026-05-04 04:30 35.30617 -97.10090 34980 ft 529 kts 96°
2026-05-04 04:31 35.29506 -96.99647 34995 ft 528 kts 96°
2026-05-04 04:31 35.28712 -96.92237 34995 ft 528 kts 96°
2026-05-04 04:32 35.27597 -96.81898 34984 ft 527 kts 96°
2026-05-04 04:32 35.26787 -96.74445 34990 ft 527 kts 96°
2026-05-04 04:33 35.25816 -96.65565 34992 ft 527 kts 96°
2026-05-04 04:33 35.24824 -96.56693 34997 ft 526 kts 97°
2026-05-04 04:34 35.23821 -96.47883 34979 ft 526 kts 96°
2026-05-04 04:34 35.22822 -96.39027 34974 ft 525 kts 96°
2026-05-04 04:35 35.21829 -96.30184 34977 ft 525 kts 96°
2026-05-04 04:35 35.20830 -96.21347 34982 ft 524 kts 97°
2026-05-04 04:36 35.19825 -96.12518 34986 ft 524 kts 97°
2026-05-04 04:36 35.18813 -96.03692 34986 ft 524 kts 97°
2026-05-04 04:37 35.16773 -95.86073 35002 ft 523 kts 97°
2026-05-04 04:38 35.15744 -95.77274 35005 ft 523 kts 97°
2026-05-04 04:38 35.14712 -95.68500 35006 ft 522 kts 97°
2026-05-04 04:39 35.13668 -95.59717 35002 ft 522 kts 97°
2026-05-04 04:39 35.12596 -95.50964 35000 ft 521 kts 97°
2026-05-04 04:40 35.11530 -95.42217 34996 ft 521 kts 97°
2026-05-04 04:40 35.10473 -95.33476 34996 ft 520 kts 97°
2026-05-04 04:41 35.09413 -95.24736 34992 ft 520 kts 97°
2026-05-04 04:41 35.08345 -95.15996 34996 ft 520 kts 97°
2026-05-04 04:42 35.07272 -95.07267 34995 ft 520 kts 97°
2026-05-04 04:42 35.06201 -94.98605 34991 ft 519 kts 98°
2026-05-04 04:43 35.05114 -94.89878 35020 ft 520 kts 98°
2026-05-04 04:43 35.04023 -94.81161 35020 ft 519 kts 98°
2026-05-04 04:44 35.02926 -94.72452 35030 ft 519 kts 98°
2026-05-04 04:44 35.01821 -94.63733 35024 ft 519 kts 98°
2026-05-04 04:45 35.00702 -94.55083 35028 ft 519 kts 98°
2026-05-04 04:47 34.96740 -94.24662 35008 ft 519 kts 98°
2026-05-04 04:47 34.95604 -94.15972 35009 ft 519 kts 98°
2026-05-04 04:48 34.94461 -94.07289 35006 ft 519 kts 98°
2026-05-04 04:49 34.91577 -93.85589 35010 ft 519 kts 98°
2026-05-04 04:49 34.90994 -93.81241 34833 ft 519 kts 98°
2026-05-04 04:49 34.90409 -93.76887 34962 ft 523 kts 98°
2026-05-04 04:50 34.89224 -93.68098 35013 ft 535 kts 98°
2026-05-04 04:50 34.88005 -93.59136 35014 ft 537 kts 98°
2026-05-04 04:51 34.86750 -93.50165 35012 ft 536 kts 98°
2026-05-04 04:51 34.85504 -93.41214 35008 ft 536 kts 98°
2026-05-04 04:52 34.84266 -93.32264 35013 ft 536 kts 98°
2026-05-04 04:52 34.83026 -93.23326 35017 ft 535 kts 98°
2026-05-04 04:53 34.81778 -93.14384 35022 ft 535 kts 98°
2026-05-04 04:53 34.80525 -93.05458 35029 ft 535 kts 98°
2026-05-04 04:54 34.79265 -92.96534 35031 ft 535 kts 98°
2026-05-04 04:54 34.77998 -92.87612 35037 ft 535 kts 98°
2026-05-04 04:55 34.76734 -92.78757 35038 ft 535 kts 98°
2026-05-04 04:55 34.75456 -92.69854 35033 ft 535 kts 98°
2026-05-04 04:56 34.74168 -92.60928 35037 ft 535 kts 98°
2026-05-04 04:56 34.72848 -92.52016 35035 ft 535 kts 98°
2026-05-04 04:57 34.71531 -92.43123 35038 ft 534 kts 98°
2026-05-04 04:57 34.70224 -92.34231 35050 ft 535 kts 98°
2026-05-04 04:58 34.68914 -92.25339 35046 ft 535 kts 98°
2026-05-04 04:58 34.67630 -92.16443 35046 ft 534 kts 97°
2026-05-04 04:59 34.66503 -92.07512 35047 ft 534 kts 96°
2026-05-04 04:59 34.65437 -91.98639 35045 ft 534 kts 96°
2026-05-04 05:00 34.64353 -91.89713 35048 ft 534 kts 96°
2026-05-04 05:01 34.62695 -91.76320 35061 ft 535 kts 97°
2026-05-04 05:01 34.61582 -91.67424 34815 ft 526 kts 97°
2026-05-04 05:01 34.61035 -91.63076 34365 ft 519 kts 97°
2026-05-04 05:02 34.60490 -91.58751 33656 ft 517 kts 97°
2026-05-04 05:02 34.59947 -91.54454 32939 ft 514 kts 97°
2026-05-04 05:02 34.59405 -91.50166 32272 ft 515 kts 97°
2026-05-04 05:02 34.58860 -91.45868 31600 ft 516 kts 97°
2026-05-04 05:03 34.58312 -91.41554 30951 ft 516 kts 97°
2026-05-04 05:03 34.57762 -91.37247 30283 ft 516 kts 97°
2026-05-04 05:04 34.56114 -91.24663 28057 ft 493 kts 97°
2026-05-04 05:04 34.55587 -91.20634 27341 ft 485 kts 97°
2026-05-04 05:04 34.55064 -91.16623 26649 ft 478 kts 97°
2026-05-04 05:06 34.51588 -90.90027 21818 ft 434 kts 98°
2026-05-04 05:06 34.51115 -90.86440 21171 ft 427 kts 98°
2026-05-04 05:06 34.50652 -90.82908 20550 ft 420 kts 97°
2026-05-04 05:07 34.50496 -90.79414 19928 ft 411 kts 83°
2026-05-04 05:07 34.51193 -90.76106 19265 ft 402 kts 63°
2026-05-04 05:07 34.52642 -90.73261 18633 ft 393 kts 49°
2026-05-04 05:09 34.66079 -90.54143 15818 ft 361 kts 49°
2026-05-04 05:09 34.67620 -90.51739 15750 ft 360 kts 49°
2026-05-04 05:10 34.69160 -90.49332 15550 ft 362 kts 49°
2026-05-04 05:10 34.70699 -90.46926 14995 ft 358 kts 49°
2026-05-04 05:10 34.72221 -90.44541 14450 ft 354 kts 50°
2026-05-04 05:10 34.73720 -90.42189 13902 ft 350 kts 50°
2026-05-04 05:11 34.75205 -90.39860 13316 ft 346 kts 50°
2026-05-04 05:11 34.76671 -90.37561 12763 ft 342 kts 50°
2026-05-04 05:11 34.78121 -90.35286 12376 ft 338 kts 50°
2026-05-04 05:11 34.79557 -90.33031 12210 ft 331 kts 50°
2026-05-04 05:12 34.80934 -90.30867 12095 ft 317 kts 50°
2026-05-04 05:12 34.82250 -90.28792 11972 ft 304 kts 50°
2026-05-04 05:12 34.83518 -90.26789 11936 ft 302 kts 50°
2026-05-04 05:12 34.84785 -90.24786 11859 ft 301 kts 50°
2026-05-04 05:13 34.85817 -90.23155 11823 ft 301 kts 50°
2026-05-04 05:13 34.87096 -90.21132 11756 ft 301 kts 51°
2026-05-04 05:13 34.88374 -90.19111 11696 ft 300 kts 50°
2026-05-04 05:13 34.89647 -90.17095 11630 ft 300 kts 51°
2026-05-04 05:14 34.90920 -90.15079 11475 ft 303 kts 51°
2026-05-04 05:14 34.92268 -90.13091 10918 ft 304 kts 43°
2026-05-04 05:14 34.93976 -90.11631 10500 ft 297 kts 20°
2026-05-04 05:14 34.95917 -90.11114 10313 ft 283 kts
2026-05-04 05:15 34.97859 -90.11020 10197 ft 270 kts 359°
2026-05-04 05:15 34.99679 -90.11008 10082 ft 252 kts 359°
2026-05-04 05:15 35.01372 -90.11003 9966 ft 244 kts 359°
2026-05-04 05:15 35.03087 -90.10993 9490 ft 247 kts 358°
2026-05-04 05:16 35.04786 -90.10976 8995 ft 242 kts 358°
2026-05-04 05:16 35.06459 -90.10956 8534 ft 239 kts 358°
2026-05-04 05:16 35.08113 -90.10932 8139 ft 236 kts 358°
2026-05-04 05:16 35.09754 -90.10916 7949 ft 235 kts 356°
2026-05-04 05:17 35.10836 -90.10926 7921 ft 235 kts 356°
2026-05-04 05:17 35.13027 -90.10959 7856 ft 235 kts 356°
2026-05-04 05:17 35.14113 -90.10976 7815 ft 235 kts 355°
2026-05-04 05:17 35.16297 -90.11010 7365 ft 236 kts 355°
2026-05-04 05:18 35.17933 -90.11034 6936 ft 233 kts 355°
2026-05-04 05:18 35.19547 -90.11058 6538 ft 231 kts 354°
2026-05-04 05:18 35.21149 -90.11081 6110 ft 230 kts 354°
2026-05-04 05:18 35.22206 -90.11097 5834 ft 229 kts 354°
2026-05-04 05:19 35.24331 -90.11129 5309 ft 228 kts 353°
2026-05-04 05:19 35.25387 -90.11146 5065 ft 229 kts 353°
2026-05-04 05:19 35.26981 -90.11175 4694 ft 229 kts 352°
2026-05-04 05:19 35.28578 -90.11224 4312 ft 230 kts 353°
2026-05-04 05:20 35.30160 -90.10831 4011 ft 238 kts 23°
2026-05-04 05:20 35.31394 -90.09452 3994 ft 248 kts 57°
2026-05-04 05:20 35.31949 -90.07461 4003 ft 249 kts 84°
2026-05-04 05:20 35.32093 -90.05344 4000 ft 250 kts 88°
2026-05-04 05:21 35.32064 -90.03236 3960 ft 246 kts 107°
2026-05-04 05:21 35.31315 -90.01426 3970 ft 236 kts 139°
2026-05-04 05:21 35.30102 -90.00105 4000 ft 233 kts 148°
2026-05-04 05:21 35.28688 -89.99314 3975 ft 217 kts 179°
2026-05-04 05:22 35.27186 -89.99212 4002 ft 216 kts 185°
2026-05-04 05:22 35.25684 -89.99177 3983 ft 216 kts 185°
2026-05-04 05:22 35.24196 -89.99141 3964 ft 218 kts 185°
2026-05-04 05:22 35.22703 -89.99103 3694 ft 210 kts 185°
2026-05-04 05:23 35.21280 -89.99066 3431 ft 198 kts 185°
2026-05-04 05:23 35.19956 -89.99032 3174 ft 183 kts 186°
2026-05-04 05:23 35.18727 -89.99004 2926 ft 172 kts 186°
2026-05-04 05:23 35.17548 -89.98982 2729 ft 168 kts 187°
2026-05-04 05:24 35.16391 -89.98961 2518 ft 166 kts 186°
2026-05-04 05:24 35.15252 -89.98941 2336 ft 163 kts 186°
2026-05-04 05:24 35.14142 -89.98917 2090 ft 157 kts 187°
2026-05-04 05:24 35.13055 -89.98897 1890 ft 154 kts 185°
2026-05-04 05:25 35.11987 -89.98877 1729 ft 152 kts 185°
2026-05-04 05:25 35.10959 -89.98857 1478 ft 146 kts 185°
2026-05-04 05:25 35.09947 -89.98839 1322 ft 145 kts 183°
2026-05-04 05:25 35.08935 -89.98820 1091 ft 147 kts 181°
2026-05-04 05:26 35.07918 -89.98806 885 ft 148 kts 184°
2026-05-04 05:26 35.06878 -89.98799 775 ft 150 kts 183°
2026-05-04 05:26 35.05849 -89.98782 568 ft 149 kts 181°
2026-05-04 05:26 35.04810 -89.98741 349 ft 147 kts 181°
2026-05-04 05:27 35.03949 -89.98733 334 ft 96 kts 176°